| time (UTC) | temp C | wind direction | speed KPH | gust KPH | rain 1hr cm | rain 24hr cm | rain mn cm | humidity % | barometer mb |
| 20260906065500 | -17 | 71 | 1.6 | 8.0 | 0.00 | 1.70 | 0.00 | 1016.0 | |
| 20260906064459 | -17 | 56 | 3.2 | 8.0 | 0.00 | 1.70 | 0.00 | 1016.0 | |
| 20260906063500 | -17 | 49 | 4.8 | 11.3 | 0.00 | 1.70 | 0.00 | 1016.0 | |
| 20260906062501 | -17 | 80 | 4.8 | 9.7 | 0.00 | 1.70 | 0.00 | 1015.9 | |
| 20260906060459 | -17 | 57 | 1.6 | 4.8 | 0.00 | 1.70 | 0.00 | 1015.9 | |
| 20260906060003 | -17 | 53 | 1.6 | 8.0 | 0.00 | 1.70 | 0.00 | 1015.9 | |
| 20260906055459 | -17 | 66 | 3.2 | 11.3 | 0.00 | 1.70 | 0.00 | 1015.9 | |
| 20260906055000 | -17 | 38 | 3.2 | 11.3 | 0.00 | 1.70 | 0.00 | 1015.8 | |
| 20260906054000 | -17 | 13 | 4.8 | 11.3 | 0.00 | 1.70 | 0.00 | 1015.6 | |
| 20260906053500 | -17 | 70 | 6.4 | 9.7 | 0.00 | 1.70 | 0.00 | 1015.6 | |
| 20260906052959 | -17 | 55 | 4.8 | 9.7 | 0.00 | 1.70 | 0.00 | 1015.6 | |
| 20260906052500 | -17 | 47 | 3.2 | 9.7 | 0.00 | 1.70 | 0.00 | 1015.6 | |
| 20260906052000 | -17 | 49 | 4.8 | 9.7 | 0.00 | 1.70 | 0.00 | 1015.7 | |
| 20260906051459 | -17 | 51 | 3.2 | 9.7 | 0.00 | 1.70 | 0.00 | 1015.6 | |
| 20260906051001 | -17 | 50 | 3.2 | 9.7 | 0.00 | 1.70 | 0.00 | 1015.6 | |
| 20260906050500 | -17 | 46 | 4.8 | 8.0 | 0.00 | 1.70 | 0.00 | 1015.6 | |
| 20260906050007 | -17 | 62 | 4.8 | 6.4 | 0.00 | 1.70 | 0.00 | 1015.6 | |
| 20260906045502 | -17 | 66 | 1.6 | 8.0 | 0.00 | 1.70 | 0.00 | 1015.6 | |
| 20260906045002 | -17 | 45 | 3.2 | 8.0 | 0.00 | 1.70 | 0.00 | 1015.5 | |
| 20260906044503 | -17 | 59 | 4.8 | 8.0 | 0.00 | 1.70 | 0.00 | 1015.4 | |
| 20260906044002 | -17 | 44 | 3.2 | 8.0 | 0.00 | 1.70 | 0.00 | 1015.3 | |
| 20260906043502 | -17 | 74 | 4.8 | 9.7 | 0.00 | 1.70 | 0.00 | 1015.3 | |
| 20260906043004 | -17 | 64 | 3.2 | 11.3 | 0.00 | 1.70 | 0.00 | 1015.4 | |
| 20260906042503 | -17 | 60 | 3.2 | 12.9 | 0.00 | 1.70 | 0.00 | 1015.3 | |
| 20260906042002 | -17 | 48 | 6.4 | 12.9 | 0.00 | 1.70 | 0.00 | 1015.3 | |
| 20260906041002 | -17 | 54 | 6.4 | 14.5 | 0.00 | 1.70 | 0.00 | 1015.3 | |
| 20260906040502 | -17 | 65 | 6.4 | 14.5 | 0.00 | 1.70 | 0.00 | 1015.3 | |
| 20260906040006 | -17 | 53 | 4.8 | 11.3 | 0.00 | 1.70 | 0.00 | 1015.3 | |
| 20260906035504 | -17 | 83 | 3.2 | 11.3 | 0.00 | 1.70 | 1.70 | 1015.4 | |
| 20260906035003 | -17 | 50 | 4.8 | 11.3 | 0.00 | 1.70 | 1.70 | 1015.4 | |
| 20260906034501 | -17 | 49 | 3.2 | 12.9 | 0.00 | 1.70 | 1.70 | 1015.4 | |
| 20260906034002 | -17 | 49 | 4.8 | 12.9 | 0.00 | 1.70 | 1.70 | 1015.4 | |
| 20260906033504 | -17 | 80 | 6.4 | 16.1 | 0.00 | 1.70 | 1.70 | 1015.4 | |
| 20260906033004 | -17 | 34 | 8.0 | 16.1 | 0.00 | 1.70 | 1.70 | 1015.4 | |
| 20260906032502 | -17 | 39 | 4.8 | 9.7 | 0.00 | 1.70 | 1.70 | 1015.4 | |
| 20260906032002 | -17 | 46 | 4.8 | 12.9 | 0.00 | 1.70 | 1.70 | 1015.4 | |
| 20260906031502 | -17 | 41 | 6.4 | 12.9 | 0.00 | 1.70 | 1.70 | 1015.4 | |
| 20260906031004 | -17 | 50 | 6.4 | 14.5 | 0.00 | 1.70 | 1.70 | 90 | 1015.3 |
| 20260906030502 | -17 | 75 | 6.4 | 14.5 | 0.00 | 1.70 | 1.70 | 1015.1 | |
| 20260906025504 | 22 | 78 | 4.8 | 14.5 | 0.00 | 1.70 | 1.70 | 90 | 1014.9 |
| 20260906025003 | 22 | 73 | 9.7 | 14.5 | 0.00 | 1.70 | 1.70 | 90 | 1014.9 |
| 20260906024502 | 22 | 76 | 6.4 | 14.5 | 0.00 | 1.70 | 1.70 | 90 | 1014.8 |
| 20260906024002 | 23 | 45 | 4.8 | 16.1 | 0.00 | 1.70 | 1.70 | 90 | 1014.8 |
| 20260906023503 | 23 | 61 | 6.4 | 17.7 | 0.00 | 1.70 | 1.70 | 90 | 1014.8 |
| 20260906023002 | 23 | 70 | 8.0 | 17.7 | 0.00 | 1.70 | 1.70 | 90 | 1014.7 |
| 20260906022004 | -17 | 52 | 6.4 | 16.1 | 0.00 | 1.70 | 1.70 | 90 | 1014.7 |
| 20260906021502 | 23 | 81 | 9.7 | 19.3 | 0.00 | 1.70 | 1.70 | 90 | 1014.6 |
| 20260906021002 | 23 | 59 | 11.3 | 22.5 | 0.00 | 1.70 | 1.70 | 1014.5 | |
| 20260906020503 | 23 | 79 | 9.7 | 22.5 | 0.00 | 1.70 | 1.70 | 90 | 1014.5 |
| 20260906020006 | 23 | 84 | 9.7 | 14.5 | 0.00 | 1.70 | 1.70 | 91 | 1014.6 |
| 20260906015502 | 23 | 34 | 8.0 | 17.7 | 0.00 | 1.70 | 1.70 | 91 | 1014.5 |
| 20260906015005 | 23 | 70 | 4.8 | 14.5 | 0.00 | 1.70 | 1.70 | 92 | 1014.3 |
| 20260906014502 | 23 | 86 | 6.4 | 14.5 | 0.00 | 1.70 | 1.70 | 92 | 1014.2 |
| 20260906014003 | 23 | 69 | 6.4 | 9.7 | 0.00 | 1.70 | 1.70 | 1014.1 | |
| 20260906013504 | -17 | 78 | 4.8 | 12.9 | 0.00 | 1.70 | 1.70 | 1014.1 | |
| 20260906013002 | -17 | 76 | 6.4 | 12.9 | 0.00 | 1.70 | 1.70 | 1 | 1014.0 |
| 20260906012502 | -17 | 59 | 6.4 | 11.3 | 0.00 | 1.70 | 1.70 | 1 | 1014.0 |
| 20260906012003 | -17 | 70 | 6.4 | 16.1 | 0.00 | 1.70 | 1.70 | 1013.9 | |
| 20260906011503 | -17 | 78 | 6.4 | 17.7 | 0.00 | 1.70 | 1.70 | 1013.7 | |
| 20260906011003 | -17 | 75 | 8.0 | 17.7 | 0.00 | 1.70 | 1.70 | 1 | 1013.6 |
| 20260906010503 | -17 | 69 | 6.4 | 12.9 | 0.00 | 1.70 | 1.70 | 1013.4 | |
| 20260906010006 | -17 | 62 | 6.4 | 12.9 | 0.00 | 1.70 | 1.70 | 1013.4 | |
| 20260906005503 | -17 | 73 | 4.8 | 11.3 | 0.00 | 1.70 | 1.70 | 1013.3 | |
| 20260906005003 | -17 | 49 | 6.4 | 12.9 | 0.00 | 1.70 | 1.70 | 1013.2 | |
| 20260906004503 | 23 | 331 | 6.4 | 11.3 | 0.00 | 1.70 | 1.70 | 1013.2 | |
| 20260906004002 | 23 | 32 | 0.0 | 1.6 | 0.00 | 1.70 | 1.70 | 1013.1 | |
| 20260906003502 | -17 | 32 | 0.0 | 1.6 | 0.00 | 1.70 | 1.70 | 1 | 1013.1 |
| 20260906003003 | -17 | 32 | 0.0 | 1.6 | 0.00 | 1.70 | 1.70 | 90 | 1013.0 |
| 20260906002503 | 23 | 32 | 0.0 | 1.6 | 0.00 | 1.70 | 1.70 | 90 | 1012.9 |
| 20260906002005 | 23 | 32 | 0.0 | 1.6 | 0.00 | 1.70 | 1.70 | 91 | 1012.7 |
| 20260906001502 | 23 | 32 | 0.0 | 1.6 | 0.00 | 1.70 | 1.70 | 91 | 1012.7 |
| 20260906001002 | 23 | 32 | 0.0 | 1.6 | 0.00 | 1.70 | 1.70 | 91 | 1012.7 |
| 20260906000502 | 24 | 32 | 0.0 | 0.0 | 0.00 | 1.70 | 1.70 | 91 | 1012.7 |
| 20260905235503 | 24 | 32 | 0.0 | 0.0 | 0.00 | 1.70 | 1.70 | 91 | 1013.0 |
| 20260905235003 | 24 | 32 | 0.0 | 0.0 | 0.00 | 1.70 | 1.70 | 91 | 1013.0 |
| 20260905234005 | 25 | 32 | 0.0 | 1.6 | 0.00 | 1.70 | 1.70 | 91 | 1013.0 |
| 20260905233503 | 25 | 32 | 0.0 | 0.0 | 0.00 | 1.70 | 1.70 | 90 | 1012.9 |
| 20260905233002 | 25 | 32 | 0.0 | 0.0 | 0.00 | 1.70 | 1.70 | 90 | 1012.8 |
| 20260905232502 | 25 | 32 | 0.0 | 0.0 | 0.00 | 1.70 | 1.70 | 90 | 1012.8 |
| 20260905232003 | 25 | 32 | 0.0 | 0.0 | 0.00 | 1.70 | 1.70 | 90 | 1012.8 |
| 20260905231502 | 24 | 32 | 0.0 | 1.6 | 0.00 | 1.70 | 1.70 | 90 | 1012.9 |
| 20260905231002 | 24 | 32 | 0.0 | 4.8 | 0.10 | 1.70 | 1.70 | 90 | 1012.8 |
| 20260905230502 | 23 | 32 | 1.6 | 4.8 | 0.10 | 1.70 | 1.70 | 90 | 1012.6 |
| 20260905225501 | 23 | 32 | 0.0 | 4.8 | 0.10 | 1.70 | 1.70 | 90 | 1012.5 |
| 20260905225002 | 23 | 32 | 3.2 | 4.8 | 0.56 | 1.70 | 1.70 | 90 | 1012.6 |
| 20260905224501 | 23 | 32 | 1.6 | 4.8 | 1.24 | 1.70 | 1.70 | 90 | 1012.6 |
| 20260905224006 | 23 | 32 | 0.0 | 3.2 | 1.57 | 1.70 | 1.70 | 90 | 1012.6 |
| 20260905223502 | 22 | 156 | 0.0 | 1.6 | 1.70 | 1.70 | 1.70 | 90 | 1012.5 |
| 20260905223002 | 22 | 156 | 0.0 | 4.8 | 1.70 | 1.70 | 1.70 | 90 | 1012.5 |
| 20260905222503 | 21 | 160 | 1.6 | 4.8 | 1.70 | 1.70 | 1.70 | 90 | 1012.7 |
| 20260905222001 | 21 | 234 | 0.0 | 3.2 | 1.70 | 1.70 | 1.70 | 90 | 1013.0 |
| 20260905221502 | 21 | 156 | 0.0 | 16.1 | 1.70 | 1.70 | 1.70 | 91 | 1013.0 |
| 20260905221003 | 21 | 71 | 11.3 | 16.1 | 1.60 | 1.60 | 1.60 | 91 | 1012.8 |
| 20260905220502 | 20 | 92 | 4.8 | 14.5 | 1.60 | 1.60 | 1.60 | 92 | 1012.5 |
| 20260905220005 | 20 | 264 | 3.2 | 54.7 | 1.60 | 1.60 | 1.60 | 92 | 1012.4 |
| 20260905215502 | 21 | 259 | 9.7 | 66.0 | 1.55 | 1.55 | 1.55 | 90 | 1013.2 |
| 20260905214001 | 29 | 44 | 14.5 | 27.4 | 0.08 | 0.08 | 0.08 | 65 | 1012.7 |
| 20260905213501 | 31 | 63 | 14.5 | 27.4 | 0.00 | 0.00 | 0.00 | 62 | 1012.4 |
| 20260905213001 | 31 | 337 | 6.4 | 16.1 | 0.00 | 0.00 | 0.00 | 65 | 1012.0 |
| 20260905212504 | 31 | 303 | 11.3 | 16.1 | 0.00 | 0.00 | 0.00 | 65 | 1011.8 |
| 20260905212002 | 31 | 275 | 9.7 | 17.7 | 0.00 | 0.00 | 0.00 | 66 | 1012.0 |
| 20260905211501 | 31 | 294 | 11.3 | 17.7 | 0.00 | 0.00 | 0.00 | 63 | 1012.3 |
| 20260905211001 | 31 | 321 | 9.7 | 12.9 | 0.00 | 0.00 | 0.00 | 65 | 1012.2 |
| 20260905210501 | 31 | 286 | 8.0 | 16.1 | 0.00 | 0.00 | 0.00 | 65 | 1012.1 |
| 20260905210005 | 31 | 290 | 8.0 | 16.1 | 0.00 | 0.00 | 0.00 | 67 | 1012.0 |
| 20260905205502 | 31 | 295 | 6.4 | 12.9 | 0.00 | 0.00 | 0.00 | 65 | 1012.0 |
| 20260905205001 | 31 | 270 | 9.7 | 12.9 | 0.00 | 0.00 | 0.00 | 65 | 1012.1 |
| 20260905204502 | 31 | 282 | 8.0 | 12.9 | 0.00 | 0.00 | 0.00 | 66 | 1012.2 |
| 20260905204002 | 31 | 328 | 1.6 | 14.5 | 0.00 | 0.00 | 0.00 | 66 | 1012.2 |
| 20260905203501 | 31 | 289 | 8.0 | 14.5 | 0.00 | 0.00 | 0.00 | 67 | 1012.3 |
| 20260905203001 | 31 | 283 | 9.7 | 12.9 | 0.00 | 0.00 | 0.00 | 65 | 1012.3 |
| 20260905202501 | 31 | 290 | 6.4 | 11.3 | 0.00 | 0.00 | 0.00 | 67 | 1012.4 |
| 20260905202001 | 31 | 294 | 8.0 | 11.3 | 0.00 | 0.00 | 0.00 | 67 | 1012.5 |
| 20260905201502 | 31 | 271 | 6.4 | 11.3 | 0.00 | 0.00 | 0.00 | 66 | 1012.6 |
| 20260905201003 | 31 | 296 | 6.4 | 9.7 | 0.00 | 0.00 | 0.00 | 65 | 1012.5 |
| 20260905200501 | 31 | 349 | 3.2 | 16.1 | 0.00 | 0.00 | 0.00 | 66 | 1012.6 |
| 20260905200003 | 31 | 290 | 3.2 | 16.1 | 0.00 | 0.00 | 0.00 | 65 | 1012.8 |
| 20260905195502 | 31 | 302 | 8.0 | 12.9 | 0.00 | 0.00 | 0.00 | 65 | 1012.8 |
| 20260905195004 | 31 | 344 | 6.4 | 14.5 | 0.00 | 0.00 | 0.00 | 67 | 1012.8 |
| 20260905194501 | 31 | 45 | 3.2 | 14.5 | 0.00 | 0.00 | 0.00 | 69 | 1012.7 |
| 20260905194001 | 30 | 286 | 9.7 | 14.5 | 0.00 | 0.00 | 0.00 | 67 | 1012.8 |
| 20260905193502 | 30 | 297 | 6.4 | 12.9 | 0.00 | 0.00 | 0.00 | 68 | 1013.0 |
| 20260905193001 | 31 | 281 | 8.0 | 12.9 | 0.00 | 0.00 | 0.00 | 66 | 1013.0 |
| 20260905192502 | 31 | 23 | 4.8 | 11.3 | 0.00 | 0.00 | 0.00 | 67 | 1013.1 |
| 20260905192002 | 31 | 302 | 4.8 | 9.7 | 0.00 | 0.00 | 0.00 | 65 | 1013.0 |
| 20260905191501 | 31 | 288 | 4.8 | 17.7 | 0.00 | 0.00 | 0.00 | 65 | 1013.0 |
| 20260905191002 | 31 | 281 | 11.3 | 17.7 | 0.00 | 0.00 | 0.00 | 65 | 1013.1 |
| 20260905190004 | 31 | 302 | 6.4 | 16.1 | 0.00 | 0.00 | 0.00 | 65 | 1013.2 |
| 20260905185002 | 31 | 280 | 11.3 | 17.7 | 0.00 | 0.00 | 0.00 | 63 | 1013.3 |
| 20260905184501 | 31 | 287 | 11.3 | 16.1 | 0.00 | 0.00 | 0.00 | 63 | 1013.4 |
| 20260905184001 | 31 | 251 | 6.4 | 19.3 | 0.00 | 0.00 | 0.00 | 62 | 1013.4 |
| 20260905183501 | 31 | 263 | 9.7 | 19.3 | 0.00 | 0.00 | 0.00 | 62 | 1013.5 |
| 20260905183002 | 31 | 272 | 8.0 | 17.7 | 0.00 | 0.00 | 0.00 | 63 | 1013.6 |
| 20260905182501 | 31 | 222 | 9.7 | 16.1 | 0.00 | 0.00 | 0.00 | 62 | 1013.5 |
| 20260905182002 | 30 | 268 | 9.7 | 19.3 | 0.00 | 0.00 | 0.00 | 62 | 1013.7 |
| 20260905180005 | 30 | 241 | 11.3 | 19.3 | 0.00 | 0.00 | 0.00 | 61 | 1013.8 |
| 20260905175502 | 30 | 220 | 12.9 | 16.1 | 0.00 | 0.00 | 0.00 | 61 | 1013.8 |
| 20260905175002 | 30 | 303 | 9.7 | 16.1 | 0.00 | 0.00 | 0.00 | 62 | 1013.8 |
| 20260905174502 | 30 | 232 | 9.7 | 16.1 | 0.00 | 0.00 | 0.00 | 63 | 1013.9 |
| 20260905174001 | 30 | 256 | 9.7 | 14.5 | 0.00 | 0.00 | 0.00 | 62 | 1013.9 |
| 20260905173501 | 30 | 167 | 4.8 | 16.1 | 0.00 | 0.00 | 0.00 | 64 | 1014.1 |
| 20260905173001 | 30 | 255 | 11.3 | 16.1 | 0.00 | 0.00 | 0.00 | 61 | 1014.2 |
| 20260905172503 | 29 | 238 | 9.7 | 12.9 | 0.00 | 0.00 | 0.00 | 64 | 1014.2 |
| 20260905172004 | 28 | 266 | 6.4 | 14.5 | 0.00 | 0.00 | 0.00 | 66 | 1014.3 |
| 20260905171501 | 28 | 293 | 8.0 | 16.1 | 0.00 | 0.00 | 0.00 | 65 | 1014.4 |
| 20260905171001 | 28 | 234 | 9.7 | 16.1 | 0.00 | 0.00 | 0.00 | 64 | 1014.5 |
| 20260905170501 | 28 | 193 | 8.0 | 14.5 | 0.00 | 0.00 | 0.00 | 65 | 1014.6 |
| 20260905170004 | 28 | 206 | 9.7 | 14.5 | 0.00 | 0.00 | 0.00 | 64 | 1014.7 |
| 20260905165501 | 28 | 162 | 8.0 | 14.5 | 0.00 | 0.00 | 0.00 | 64 | 1014.8 |
| 20260905165003 | 28 | 136 | 9.7 | 16.1 | 0.00 | 0.00 | 0.00 | 64 | 1014.8 |
| 20260905164501 | 28 | 210 | 9.7 | 16.1 | 0.00 | 0.00 | 0.00 | 65 | 1014.8 |
| 20260905164002 | 28 | 220 | 8.0 | 16.1 | 0.00 | 0.00 | 0.00 | 64 | 1014.9 |
| 20260905163501 | 28 | 229 | 8.0 | 16.1 | 0.00 | 0.00 | 0.00 | 65 | 1014.9 |
| 20260905163001 | 27 | 165 | 8.0 | 17.7 | 0.00 | 0.00 | 0.00 | 66 | 1014.9 |
| 20260905162501 | 27 | 185 | 9.7 | 17.7 | 0.00 | 0.00 | 0.00 | 67 | 1014.9 |
| 20260905162003 | 27 | 221 | 8.0 | 20.9 | 0.00 | 0.00 | 0.00 | 67 | 1014.9 |
| 20260905161502 | 27 | 204 | 9.7 | 20.9 | 0.00 | 0.00 | 0.00 | 66 | 1014.9 |
| 20260905161001 | 27 | 163 | 8.0 | 19.3 | 0.00 | 0.00 | 0.00 | 68 | 1014.9 |
| 20260905160501 | 27 | 256 | 11.3 | 19.3 | 0.00 | 0.00 | 0.00 | 67 | 1014.8 |
| 20260905160004 | 27 | 240 | 11.3 | 17.7 | 0.00 | 0.00 | 0.00 | 67 | 1014.8 |
| 20260905155503 | 27 | 236 | 8.0 | 17.7 | 0.00 | 0.00 | 0.00 | 67 | 1014.8 |
| 20260905155001 | 27 | 182 | 9.7 | 16.1 | 0.00 | 0.00 | 0.00 | 66 | 1014.7 |
| 20260905154501 | 27 | 196 | 8.0 | 19.3 | 0.00 | 0.00 | 0.00 | 67 | 1014.8 |
| 20260905154002 | 27 | 172 | 9.7 | 22.5 | 0.00 | 0.00 | 0.00 | 68 | 1014.6 |
| 20260905153501 | 27 | 184 | 11.3 | 22.5 | 0.00 | 0.00 | 0.00 | 69 | 1014.7 |
| 20260905152501 | 26 | 148 | 8.0 | 20.9 | 0.00 | 0.00 | 0.00 | 70 | 1014.7 |
| 20260905152003 | 26 | 241 | 9.7 | 16.1 | 0.00 | 0.00 | 0.00 | 69 | 1014.7 |
| 20260905151502 | 26 | 197 | 9.7 | 22.5 | 0.00 | 0.00 | 0.00 | 70 | 1014.8 |
| 20260905151001 | 26 | 238 | 12.9 | 22.5 | 0.00 | 0.00 | 0.00 | 70 | 1014.9 |
| 20260905150503 | 26 | 237 | 14.5 | 19.3 | 0.00 | 0.00 | 0.00 | 70 | 1014.9 |
| 20260905150004 | 26 | 133 | 9.7 | 20.9 | 0.00 | 0.00 | 0.00 | 71 | 1014.9 |
| 20260905145001 | 25 | 186 | 12.9 | 20.9 | 0.00 | 0.00 | 0.00 | 72 | 1014.7 |
| 20260905144501 | 25 | 166 | 11.3 | 17.7 | 0.00 | 0.00 | 0.00 | 73 | 1014.8 |
| 20260905144002 | 25 | 196 | 9.7 | 24.1 | 0.00 | 0.00 | 0.00 | 75 | 1014.8 |
| 20260905143502 | 25 | 216 | 12.9 | 24.1 | 0.00 | 0.00 | 0.00 | 75 | 1014.7 |
| 20260905143001 | 24 | 129 | 16.1 | 22.5 | 0.00 | 0.00 | 0.00 | 75 | 1014.7 |
| 20260905142501 | 24 | 168 | 8.0 | 22.5 | 0.00 | 0.00 | 0.00 | 75 | 1014.6 |
| 20260905142005 | 24 | 172 | 14.5 | 24.1 | 0.00 | 0.00 | 0.00 | 75 | 1014.7 |
| 20260905141505 | 24 | 137 | 16.1 | 24.1 | 0.00 | 0.00 | 0.00 | 76 | 1014.6 |
| 20260905141002 | 24 | 169 | 8.0 | 25.7 | 0.00 | 0.00 | 0.00 | 77 | 1014.6 |
| 20260905140004 | 23 | 162 | 12.9 | 22.5 | 0.00 | 0.00 | 0.00 | 77 | 1014.7 |
| 20260905135001 | 23 | 140 | 14.5 | 24.1 | 0.00 | 0.00 | 0.00 | 78 | 1014.7 |
| 20260905134500 | 23 | 160 | 8.0 | 19.3 | 0.00 | 0.00 | 0.00 | 79 | 1014.6 |
| 20260905134002 | 23 | 183 | 9.7 | 19.3 | 0.00 | 0.00 | 0.00 | 79 | 1014.6 |
| 20260905133502 | 23 | 162 | 12.9 | 22.5 | 0.00 | 0.00 | 0.00 | 79 | 1014.8 |
| 20260905133001 | 23 | 179 | 12.9 | 20.9 | 0.00 | 0.00 | 0.00 | 79 | 1014.8 |
| 20260905132501 | 23 | 191 | 8.0 | 17.7 | 0.00 | 0.00 | 0.00 | 81 | 1014.9 |
| 20260905132002 | 22 | 183 | 11.3 | 19.3 | 0.00 | 0.00 | 0.00 | 80 | 1015.0 |
| 20260905131503 | 22 | 129 | 9.7 | 19.3 | 0.00 | 0.00 | 0.00 | 81 | 1014.9 |
| 20260905131001 | 22 | 139 | 11.3 | 14.5 | 0.00 | 0.00 | 0.00 | 81 | 1014.9 |
| 20260905130502 | 22 | 160 | 8.0 | 19.3 | 0.00 | 0.00 | 0.00 | 82 | 1014.9 |
| 20260905130005 | 22 | 215 | 12.9 | 19.3 | 0.00 | 0.00 | 0.00 | 82 | 1015.0 |
| 20260905125501 | 22 | 169 | 11.3 | 16.1 | 0.00 | 0.00 | 0.00 | 83 | 1015.0 |
| 20260905125001 | 22 | 174 | 11.3 | 16.1 | 0.00 | 0.00 | 0.00 | 83 | 1015.1 |
| 20260905124500 | 22 | 136 | 3.2 | 16.1 | 0.00 | 0.00 | 0.00 | 84 | 1015.0 |
| 20260905124002 | 21 | 169 | 9.7 | 16.1 | 0.00 | 0.00 | 0.00 | 84 | 1014.9 |
| 20260905123501 | 21 | 150 | 4.8 | 11.3 | 0.00 | 0.00 | 0.00 | 85 | 1015.0 |
| 20260905123002 | 21 | 113 | 3.2 | 9.7 | 0.00 | 0.00 | 0.00 | 86 | 1014.9 |
| 20260905122501 | 21 | 153 | 4.8 | 9.7 | 0.00 | 0.00 | 0.00 | 85 | 1014.9 |
| 20260905122002 | 21 | 131 | 6.4 | 11.3 | 0.00 | 0.00 | 0.00 | 86 | 1015.0 |
| 20260905121501 | 21 | 112 | 6.4 | 11.3 | 0.00 | 0.00 | 0.00 | 86 | 1014.9 |
| 20260905121001 | 21 | 136 | 6.4 | 9.7 | 0.00 | 0.00 | 0.00 | 87 | 1014.7 |
| 20260905120501 | 21 | 135 | 4.8 | 12.9 | 0.00 | 0.00 | 0.00 | 87 | 1014.8 |
| 20260905115502 | 21 | 168 | 4.8 | 12.9 | 0.00 | 0.00 | 0.00 | 87 | 1014.6 |
| 20260905115001 | 21 | 130 | 6.4 | 16.1 | 0.00 | 0.00 | 0.00 | 87 | 1014.6 |
| 20260905114501 | 21 | 134 | 8.0 | 16.1 | 0.00 | 0.00 | 0.00 | 87 | 1014.7 |
| 20260905113502 | 21 | 134 | 9.7 | 16.1 | 0.00 | 0.00 | 0.00 | 86 | 1014.7 |
| 20260905113001 | 21 | 142 | 9.7 | 16.1 | 0.00 | 0.00 | 0.00 | 86 | 1014.8 |
| 20260905112501 | 21 | 147 | 9.7 | 16.1 | 0.00 | 0.00 | 0.00 | 86 | 1014.7 |
| 20260905112003 | 21 | 138 | 6.4 | 14.5 | 0.00 | 0.00 | 0.00 | 86 | 1014.7 |
| 20260905111512 | 21 | 138 | 8.0 | 14.5 | 0.00 | 0.00 | 0.00 | 86 | 1014.7 |
| 20260905111001 | 21 | 123 | 4.8 | 14.5 | 0.00 | 0.00 | 0.00 | 86 | 1014.7 |
| 20260905110501 | 21 | 144 | 6.4 | 12.9 | 0.00 | 0.00 | 0.00 | 86 | 1014.8 |
| 20260905110005 | 21 | 65 | 3.2 | 17.7 | 0.00 | 0.00 | 0.00 | 86 | 1014.8 |
| 20260905105001 | 21 | 151 | 9.7 | 17.7 | 0.00 | 0.00 | 0.00 | 86 | 1014.6 |
| 20260905104501 | 21 | 121 | 8.0 | 17.7 | 0.00 | 0.00 | 0.00 | 86 | 1014.8 |
| 20260905104001 | 21 | 137 | 4.8 | 14.5 | 0.00 | 0.00 | 0.00 | 85 | 1014.8 |
| 20260905103001 | 21 | 125 | 9.7 | 16.1 | 0.00 | 0.00 | 0.00 | 85 | 1014.7 |
| 20260905102502 | 21 | 128 | 8.0 | 14.5 | 0.00 | 0.00 | 0.00 | 85 | 1014.7 |
| 20260905102001 | 21 | 96 | 6.4 | 25.7 | 0.00 | 0.00 | 0.00 | 84 | 1014.8 |
| 20260905101502 | 22 | 64 | 6.4 | 25.7 | 0.00 | 0.00 | 0.00 | 83 | 1014.8 |
| 20260905101002 | 22 | 123 | 14.5 | 25.7 | 0.00 | 0.00 | 0.00 | 83 | 1014.8 |
| 20260905095502 | 23 | 153 | 0.0 | 1.6 | 0.00 | 0.00 | 0.00 | 90 | 1013.7 |
| 20260905095000 | 23 | 154 | 1.6 | 1.6 | 0.00 | 0.00 | 0.00 | 90 | 1013.7 |
| 20260905094500 | 23 | 155 | 0.0 | 1.6 | 0.00 | 0.00 | 0.00 | 90 | 1013.7 |
| 20260905094003 | 23 | 155 | 0.0 | 1.6 | 0.00 | 0.00 | 0.00 | 90 | 1013.7 |
| 20260905093500 | 23 | 219 | 0.0 | 0.0 | 0.00 | 0.00 | 0.00 | 90 | 1013.7 |
| 20260905093000 | 23 | 219 | 0.0 | 0.0 | 0.00 | 0.00 | 0.00 | 90 | 1013.8 |
| 20260905092000 | 23 | 219 | 0.0 | 0.0 | 0.00 | 0.00 | 0.00 | 89 | 1013.7 |
| 20260905091500 | 23 | 219 | 0.0 | 1.6 | 0.00 | 0.00 | 0.00 | 89 | 1013.7 |
| 20260905091002 | 23 | 219 | 0.0 | 1.6 | 0.00 | 0.00 | 0.00 | 89 | 1013.6 |
| 20260905090500 | 23 | 219 | 0.0 | 0.0 | 0.00 | 0.00 | 0.00 | 88 | 1013.5 |
| 20260905090003 | 24 | 219 | 0.0 | 1.6 | 0.00 | 0.00 | 0.00 | 88 | 1013.6 |
| 20260905085503 | 24 | 219 | 0.0 | 1.6 | 0.00 | 0.00 | 0.00 | 88 | 1013.5 |
| 20260905085001 | 24 | 219 | 0.0 | 1.6 | 0.00 | 0.00 | 0.00 | 88 | 1013.5 |
| 20260905084500 | 24 | 219 | 0.0 | 1.6 | 0.00 | 0.00 | 0.00 | 88 | 1013.5 |
| 20260905084001 | 24 | 198 | 0.0 | 0.0 | 0.00 | 0.00 | 0.00 | 88 | 1013.5 |
| 20260905083500 | 24 | 198 | 0.0 | 1.6 | 0.00 | 0.00 | 0.00 | 88 | 1013.7 |
| 20260905083001 | 24 | 198 | 0.0 | 1.6 | 0.00 | 0.00 | 0.00 | 88 | 1013.6 |
| 20260905082500 | 24 | 198 | 0.0 | 1.6 | 0.00 | 0.00 | 0.00 | 88 | 1013.5 |
| 20260905082000 | 24 | 198 | 0.0 | 1.6 | 0.00 | 0.00 | 0.00 | 88 | 1013.5 |
| 20260905081500 | 24 | 261 | 0.0 | 0.0 | 0.00 | 0.00 | 0.00 | 87 | 1013.5 |
| 20260905081001 | 25 | 261 | 0.0 | 1.6 | 0.00 | 0.00 | 0.00 | 87 | 1013.5 |
| 20260905080500 | 25 | 261 | 0.0 | 1.6 | 0.00 | 0.00 | 0.00 | 87 | 1013.4 |
| 20260905080003 | 25 | 261 | 0.0 | 1.6 | 0.00 | 0.00 | 0.00 | 87 | 1013.4 |
| 20260905075000 | 25 | 262 | 0.0 | 0.0 | 0.00 | 0.00 | 0.00 | 87 | 1013.4 |
| 20260905074500 | 25 | 262 | 0.0 | 1.6 | 0.00 | 0.00 | 0.00 | 87 | 1013.4 |
| 20260905074000 | 25 | 262 | 0.0 | 0.0 | 0.00 | 0.00 | 0.00 | 87 | 1013.3 |
| 20260905073000 | 25 | 262 | 1.6 | 3.2 | 0.00 | 0.00 | 0.00 | 85 | 1013.1 |
| 20260905072000 | 25 | 252 | 1.6 | 4.8 | 0.00 | 0.00 | 0.00 | 85 | 1013.1 |
| 20260905071500 | 25 | 259 | 1.6 | 3.2 | 0.00 | 0.00 | 0.00 | 85 | 1013.0 |
| 20260905071000 | 25 | 236 | 0.0 | 8.0 | 0.00 | 0.00 | 0.00 | 85 | 1012.9 |
| 20260905070501 | 25 | 226 | 3.2 | 8.0 | 0.00 | 0.00 | 0.00 | 86 | 1012.8 |
| 20260905070003 | 25 | 226 | 3.2 | 6.4 | 0.00 | 0.00 | 0.00 | 86 | 1012.5 |